Wind_Speed
19 19 19 18 18 17 16 15 14 14 13 13 12 12 13 14 15 15 16 16 16 16 16 17 17 18 18 18 20 23 25 25 23 23 22 21 22 21 19 17 17 16 15 15 14 13 12 11 10 8 7 6 4 4 2 1 3 4 4 7 7 5 6 5 13 17 14 11 8 9 9 9 8 7 7 7 5 6 6 5 4 5 4 5 5 4 7 9
20 20 20 20 19 18 17 16 15 15 14 14 14 14 14 15 16 17 17 18 18 18 18 19 19 19 20 20 20 22 25 26 25 25 23 22 23 22 21 19 18 18 17 16 15 14 13 12 10 9 8 7 6 5 3 3 4 4 5 6 7 5 6 4 12 18 15 13 10 9 10 9 9 8 8 7 6 5 5 4 4 6 4 4 5 5 6 8
21 21 21 20 20 19 18 17 16 15 15 15 15 15 16 16 17 18 19 20 20 20 21 21 21 21 21 21 22 22 24 27 27 26 25 24 25 24 22 20 19 19 18 17 16 15 14 13 12 10 10 8 7 6 4 4 5 3 4 4 5 5 4 1 11 18 15 14 12 10 9 8 8 8 8 7 7 5 4 5 6 6 6 5 6 5 7 8
21 21 21 21 20 19 18 17 16 16 16 16 16 16 17 17 19 20 21 21 22 22 22 23 23 23 24 23 24 23 24 27 28 28 28 27 26 25 24 22 21 20 19 17 16 16 15 14 13 12 11 10 8 6 5 4 5 4 3 4 6 5 5 2 10 16 14 13 13 12 10 8 7 7 8 7 7 5 4 5 6 6 6 7 6 6 6 7
22 22 22 21 20 19 18 18 17 17 17 17 17 17 18 18 20 21 22 23 24 24 24 25 26 26 26 26 26 26 26 27 28 30 30 28 27 26 25 23 21 21 19 17 17 18 17 16 15 13 12 11 10 7 5 4 5 6 3 5 8 6 7 6 10 13 13 12 12 12 10 8 6 7 8 8 7 6 5 5 5 5 6 7 6 6 5 6
23 22 22 21 20 20 19 18 18 17 17 17 17 18 19 20 21 22 24 25 26 26 27 27 28 28 28 29 29 28 28 28 27 30 31 29 28 28 27 24 23 22 19 18 19 19 18 17 16 15 13 12 10 7 5 4 6 7 5 6 7 6 7 11 11 10 12 13 11 11 11 8 7 7 7 8 7 6 6 5 5 5 6 6 6 6 5 5
23 22 22 21 21 20 19 19 18 18 18 18 18 18 19 20 22 24 25 26 27 28 29 29 30 30 31 31 31 31 31 30 29 31 32 30 30 29 28 26 24 22 19 19 20 21 20 19 18 15 14 13 10 8 6 4 6 6 7 7 5 5 6 14 11 8 13 15 13 11 10 9 7 7 7 8 7 5 6 5 6 6 5 5 5 5 4 4
23 22 22 21 21 21 20 20 19 19 19 19 19 19 20 21 23 25 26 28 29 31 31 32 32 32 33 33 34 34 34 32 30 32 32 32 31 30 30 28 26 23 20 20 21 21 20 20 19 16 15 14 11 9 8 6 6 5 7 7 4 6 7 14 11 10 15 16 14 12 12 11 7 7 8 8 7 6 8 6 6 7 6 5 4 4 4 3
22 22 22 22 22 21 21 20 20 20 20 20 20 20 21 21 23 25 27 29 31 32 34 34 34 34 35 35 36 37 37 34 31 32 34 33 33 32 31 29 27 24 21 21 21 21 21 21 19 17 16 14 12 11 9 7 6 3 4 4 4 5 5 11 12 14 17 17 15 13 14 12 8 8 10 9 8 8 9 7 7 7 7 6 5 4 3 3
23 22 22 22 22 22 21 21 21 21 21 21 21 21 22 22 22 24 26 29 32 34 35 36 37 36 37 37 39 40 40 36 32 34 36 35 34 33 32 30 28 26 23 22 21 21 21 20 17 17 16 13 11 11 9 8 6 1 2 3 4 4 5 9 14 18 18 18 16 13 13 12 7 8 10 9 9 9 9 8 8 8 7 6 5 4 3 3
24 24 24 23 23 23 22 22 22 22 22 22 22 22 22 22 22 23 24 27 30 33 36 38 38 38 39 39 41 43 41 38 34 35 38 37 35 35 33 31 30 28 25 23 22 21 20 18 16 16 16 14 12 12 10 9 6 2 1 3 4 5 5 8 16 19 18 17 15 15 14 12 7 7 10 10 10 10 9 9 9 8 8 7 6 5 4 4
25 25 25 24 24 23 23 23 23 23 23 22 22 22 22 22 22 22 22 23 25 29 33 37 39 39 40 40 42 43 42 40 36 36 39 39 38 37 35 33 31 29 27 25 24 23 20 17 15 16 16 14 12 11 9 7 6 3 0 1 3 5 3 6 15 18 18 15 15 17 16 11 7 6 8 10 10 10 10 10 10 9 8 8 7 6 5 4
26 25 25 25 25 24 24 24 24 23 23 22 22 22 22 21 21 20 20 20 21 24 27 32 36 39 41 40 42 42 42 43 39 37 41 41 40 39 37 35 33 31 29 27 26 25 21 17 15 16 15 12 11 10 8 7 7 4 2 2 3 6 3 4 13 17 16 14 14 15 12 9 7 6 7 8 10 10 10 10 10 9 9 9 8 7 6 4
26 26 26 26 25 25 25 24 24 23 23 22 22 21 21 20 19 19 19 20 21 23 25 28 32 35 39 40 41 41 42 44 41 40 44 43 42 41 39 37 35 34 32 30 28 24 22 19 16 15 14 11 10 9 8 8 8 5 3 3 1 4 2 2 9 13 12 11 12 11 9 8 7 6 7 8 9 10 10 10 9 9 9 9 9 8 7 5
27 26 26 26 25 25 25 25 24 23 23 22 22 21 20 19 19 20 20 21 22 24 26 27 30 32 35 37 38 40 42 43 42 42 44 43 43 43 41 40 37 35 34 32 29 26 24 19 15 16 16 14 12 11 9 9 9 6 3 2 3 2 0 1 6 9 7 6 10 11 10 9 8 7 8 8 10 10 10 10 10 9 9 9 9 8 7 6
27 27 26 26 25 25 25 24 24 23 23 22 21 20 19 19 19 19 18 18 19 20 22 24 27 28 31 33 36 39 41 42 41 41 43 43 43 43 43 42 39 37 36 33 31 28 24 18 17 18 17 15 14 14 12 11 10 7 5 5 4 2 2 4 6 9 8 6 8 13 12 10 9 8 9 9 10 10 11 11 10 9 9 9 8 8 8 7
27 27 26 26 25 24 24 24 23 23 23 22 21 19 19 19 18 17 15 15 15 16 17 18 20 23 26 30 33 36 38 39 39 40 43 43 42 42 43 42 41 39 37 35 33 30 26 22 21 21 18 16 14 13 13 11 9 8 7 7 5 4 4 5 6 9 9 7 8 14 14 13 12 11 10 10 10 11 12 12 11 10 8 8 8 8 8 8
26 26 26 25 24 23 23 23 23 23 22 21 20 19 18 18 16 14 13 14 15 15 15 15 16 19 22 25 28 31 34 36 36 37 41 42 42 40 40 42 42 41 38 36 34 31 29 27 26 25 23 20 15 13 13 10 8 9 9 8 7 7 8 7 7 8 9 9 9 13 16 16 14 13 12 11 11 12 13 12 12 10 9 9 8 8 8 8
26 26 26 25 24 23 23 23 23 23 22 21 19 18 18 16 14 13 13 14 15 15 13 13 14 17 19 21 23 26 28 31 32 35 39 40 40 38 38 40 41 41 39 37 35 34 32 30 28 26 23 20 16 14 14 12 10 11 10 10 9 8 9 9 8 8 9 9 10 13 17 19 17 16 15 13 13 14 13 13 13 12 11 10 9 8 8 8
26 26 26 25 24 23 23 23 23 23 22 21 19 18 17 15 13 13 14 14 15 14 13 13 13 14 15 16 17 20 24 28 29 31 36 38 38 38 37 38 39 39 39 38 37 36 34 31 29 26 23 20 18 17 16 15 12 11 10 12 11 10 10 10 10 9 8 9 10 11 14 19 20 19 18 16 15 15 15 13 13 13 12 11 11 10 9 8
26 26 26 25 24 23 23 23 23 22 22 21 19 18 17 15 12 12 13 13 13 12 12 13 12 12 13 12 12 17 22 25 26 28 32 35 36 36 36 36 36 37 37 37 37 37 35 33 30 27 24 22 21 20 18 17 15 12 12 12 13 13 11 11 12 9 7 9 11 11 13 17 22 23 21 20 19 17 16 14 13 14 14 14 13 12 11 10
26 26 26 25 24 23 23 23 22 22 21 20 19 18 16 14 11 11 11 11 11 11 10 11 11 11 12 11 12 15 19 21 23 25 28 31 33 35 35 34 34 33 34 35 37 38 36 34 31 28 26 25 23 22 20 18 17 15 12 11 12 13 12 11 12 11 10 10 11 12 14 17 22 25 25 23 21 18 16 16 16 15 16 15 15 14 12 11
26 26 26 25 24 24 23 23 22 22 21 19 18 17 14 12 10 10 10 10 9 9 8 9 11 11 11 11 12 14 17 18 20 23 25 28 30 32 33 33 32 32 32 33 36 37 35 33 31 29 28 27 25 24 21 18 17 15 13 12 11 12 11 10 12 14 13 12 12 12 13 17 19 23 27 24 22 20 18 18 18 17 16 16 16 15 14 13
26 26 25 24 24 24 23 22 21 21 21 19 18 15 12 9 9 9 10 8 6 6 6 7 8 9 9 10 11 13 15 16 18 21 24 26 28 29 30 31 31 30 30 31 33 34 32 31 29 28 27 27 27 25 23 21 19 15 13 11 12 12 9 9 12 15 15 14 14 13 14 16 15 15 21 23 23 23 22 20 18 17 17 17 17 17 16 16
25 26 25 24 24 23 23 23 22 21 21 19 16 13 9 7 8 10 10 7 5 7 7 6 7 6 6 7 9 11 12 14 17 19 22 26 27 27 29 30 29 29 29 29 30 31 30 30 28 27 26 26 27 27 26 24 20 13 7 8 13 14 10 10 14 16 17 16 15 15 15 13 9 9 13 16 18 22 24 22 19 19 19 18 17 16 17 17
25 25 25 24 23 23 23 23 23 22 19 16 13 9 8 9 9 10 12 9 8 11 8 6 6 5 4 5 7 9 10 12 16 18 21 24 26 27 29 28 27 27 28 28 27 27 27 27 27 25 24 25 27 29 29 26 19 10 6 8 13 14 13 14 15 16 16 16 15 14 13 10 6 8 10 9 11 18 24 24 22 22 20 17 16 16 17 17
24 24 24 23 22 22 21 21 21 20 17 14 12 12 13 12 10 12 13 12 13 15 12 7 7 6 3 3 6 8 9 11 14 17 20 22 24 25 26 27 26 25 25 27 25 24 25 25 25 27 26 24 26 31 30 28 22 13 8 10 13 13 14 14 14 15 15 14 14 12 9 10 6 6 8 8 9 14 22 28 27 23 20 17 16 16 17 17
23 23 23 22 21 21 20 20 20 18 16 15 15 16 14 12 13 13 13 15 14 13 12 9 6 5 3 1 3 4 6 8 9 13 18 21 21 23 24 25 27 25 23 25 26 24 22 21 22 25 26 24 25 30 30 25 22 17 14 10 14 12 10 8 9 14 14 12 14 13 7 6 5 5 6 7 7 11 20 30 29 23 20 17 17 18 17 17
21 22 22 21 20 19 19 19 19 17 15 14 14 14 14 14 13 9 11 18 18 14 12 10 6 5 3 1 1 1 4 5 5 8 15 19 20 22 23 23 27 28 25 25 24 20 17 19 20 19 19 21 23 26 27 24 21 19 19 15 14 10 10 10 10 13 14 11 13 15 12 8 5 5 7 8 6 4 11 23 24 20 20 19 19 19 18 18
19 20 20 20 19 18 17 18 18 16 14 13 13 14 15 15 13 12 14 20 19 14 9 7 7 4 2 5 5 3 0 3 2 4 12 16 19 21 20 21 24 27 27 26 23 19 18 19 22 20 18 20 21 21 22 25 23 17 17 19 17 12 12 13 13 13 14 13 12 13 14 12 8 6 7 9 9 5 6 13 17 20 21 20 20 19 18 18
18 19 19 18 17 16 16 17 16 14 13 12 12 14 11 8 12 19 17 18 17 14 8 8 9 4 3 7 7 7 4 3 3 2 8 13 17 20 20 20 20 21 25 25 22 22 24 23 23 24 26 27 26 23 23 27 26 17 13 17 18 15 11 8 11 13 13 14 13 12 12 11 10 7 6 8 11 10 8 8 11 18 23 23 20 19 19 18
16 17 17 16 15 14 14 15 14 13 12 10 12 13 7 8 13 20 16 14 13 13 9 8 8 5 10 12 8 6 6 2 2 0 5 9 13 17 19 18 18 18 19 19 20 23 26 24 25 27 28 26 24 22 23 30 29 21 16 19 19 19 17 13 12 13 15 16 13 11 12 12 11 7 6 9 12 12 11 10 11 15 24 28 23 20 20 18
15 15 15 14 13 12 12 13 13 13 11 10 13 10 9 10 13 15 13 10 8 9 11 9 6 4 10 10 6 4 6 3 2 1 5 8 10 14 15 15 18 15 8 12 21 24 21 18 23 26 24 22 21 19 21 31 30 24 21 21 18 19 20 17 15 14 17 18 12 12 13 12 12 10 7 9 11 14 12 11 11 13 21 32 26 22 23 19
13 14 14 13 12 10 10 11 11 12 12 12 11 9 9 13 9 6 6 7 10 5 12 13 8 5 7 6 5 10 9 4 3 3 6 6 6 12 13 14 16 13 5 10 18 20 17 15 18 19 16 16 19 20 20 27 29 24 19 16 16 19 18 13 11 13 17 18 13 12 12 11 12 12 11 9 9 12 11 9 10 10 18 32 30 25 25 21
12 12 13 12 11 10 8 9 10 11 12 11 11 11 11 12 7 4 3 6 12 3 6 12 10 9 9 7 12 17 11 6 4 2 8 7 4 9 12 8 9 13 11 12 14 15 14 12 12 11 12 14 15 17 21 25 25 21 15 13 16 20 17 13 9 12 14 15 13 11 10 10 11 11 12 11 9 9 9 8 9 8 13 26 30 25 23 22
11 11 12 11 10 9 8 8 8 10 10 10 11 12 13 9 6 8 4 4 5 4 2 5 7 9 8 5 14 16 7 1 2 2 6 9 8 10 14 8 7 15 19 15 13 16 15 11 10 11 16 17 14 16 21 23 20 17 13 11 13 19 19 14 8 8 11 12 11 10 10 11 12 10 9 9 7 7 9 7 7 7 9 18 26 24 21 22
11 10 10 11 10 8 7 6 6 8 8 9 10 9 13 11 9 11 6 5 7 5 6 5 7 11 6 2 7 9 7 5 2 4 3 6 9 12 17 18 15 17 23 18 13 18 18 12 8 9 14 17 15 17 21 23 21 17 13 9 7 14 21 20 15 12 11 11 10 10 11 11 10 10 9 8 8 7 9 8 7 8 8 11 19 22 21 22
11 10 10 10 9 7 7 5 5 7 7 9 10 6 9 9 11 11 4 2 5 5 6 5 8 8 0 6 5 4 4 5 3 6 5 8 11 13 15 17 18 19 22 20 18 23 25 17 7 5 9 14 14 17 21 26 27 22 18 15 10 10 17 21 21 19 12 9 11 10 8 8 8 9 8 8 8 8 9 9 8 8 9 10 14 17 19 20
11 10 9 9 8 7 6 5 5 7 8 9 10 8 9 9 13 13 8 4 1 6 7 8 8 5 3 5 7 4 2 1 2 4 6 7 10 14 13 11 17 21 22 21 24 28 28 23 14 8 8 11 12 17 26 31 31 25 20 20 17 13 12 16 20 21 16 10 11 12 8 6 6 8 7 6 7 9 10 10 9 9 10 12 13 15 16 17
11 10 9 8 7 6 5 5 5 5 7 8 5 6 8 10 12 13 11 7 3 5 9 11 6 2 4 5 4 3 2 2 3 5 8 7 8 13 15 13 16 21 23 24 25 28 27 22 19 16 14 11 12 13 23 32 35 31 24 21 21 18 14 13 15 19 18 13 12 13 11 8 6 6 6 5 6 9 10 9 9 11 12 14 15 16 15 15
11 9 8 8 8 6 4 3 4 7 9 5 3 5 6 8 10 12 12 9 5 0 9 12 4 4 9 9 4 4 4 4 8 6 6 7 8 13 17 18 18 19 23 26 24 26 29 24 18 18 17 15 12 10 13 24 32 31 27 24 21 19 15 13 13 13 14 11 11 13 13 13 10 6 4 4 3 5 7 9 11 13 15 17 17 18 17 15
12 10 7 8 9 7 3 1 4 8 8 4 6 10 7 6 9 11 12 8 7 4 4 5 3 10 14 12 9 8 8 10 12 10 9 8 9 15 17 18 18 17 20 26 27 27 29 25 19 20 21 18 16 13 9 16 24 23 23 26 24 21 18 17 13 8 9 11 9 14 16 16 15 12 9 6 4 4 5 8 11 13 15 17 18 18 19 17
14 11 8 8 10 7 4 3 5 5 5 5 11 10 6 6 7 9 10 8 9 5 1 2 6 14 12 9 10 9 9 10 9 11 13 11 11 14 14 15 16 16 18 23 27 28 28 26 23 21 18 16 17 14 7 10 17 19 20 23 25 23 20 20 17 9 13 18 13 16 18 17 17 15 15 12 9 7 8 9 11 12 14 16 18 19 20 19
14 12 10 8 8 6 3 3 4 1 1 5 10 9 7 7 7 8 9 8 10 8 3 3 5 12 9 6 7 7 10 9 6 8 12 12 13 13 10 13 16 17 19 18 21 29 31 29 27 22 17 18 20 19 13 11 16 20 19 14 15 16 15 19 21 16 17 20 18 19 20 18 18 17 18 17 13 10 10 11 11 13 15 17 18 20 22 22
16 13 10 10 9 5 2 4 6 5 3 4 7 9 10 9 7 7 9 7 9 9 6 4 3 10 11 7 5 4 7 8 6 8 9 8 9 10 9 11 13 13 14 15 18 26 32 34 33 26 23 24 24 25 23 19 19 23 22 15 12 16 13 13 18 19 19 20 22 25 24 21 20 19 19 18 14 12 12 11 11 12 13 16 19 20 20 21
15 14 13 12 10 6 5 7 10 10 8 7 10 10 8 7 7 7 9 9 9 8 7 8 2 6 8 8 8 5 4 8 9 9 9 9 8 8 7 7 9 10 11 14 17 22 28 33 33 29 25 24 24 28 26 22 21 25 25 22 17 19 17 12 15 21 23 22 22 25 26 25 23 20 19 17 13 11 13 14 13 11 12 15 18 19 18 19
14 15 14 13 12 9 7 7 7 7 8 10 11 9 7 7 9 10 10 9 9 8 8 9 6 5 6 8 13 10 6 9 11 10 11 14 12 9 6 5 8 11 12 15 16 19 23 27 27 28 28 24 22 25 26 23 23 27 28 25 19 20 21 18 19 22 22 20 21 23 25 26 27 25 22 20 16 12 12 14 15 13 13 16 18 20 20 18
14 14 12 12 13 10 7 7 6 6 9 9 6 5 8 8 8 9 10 8 8 8 7 6 6 6 6 7 11 9 6 7 10 10 12 15 15 11 9 10 11 12 14 15 16 17 20 24 26 26 29 29 24 22 25 23 21 24 27 25 21 24 24 21 23 24 22 22 24 25 25 26 29 30 28 26 27 23 17 17 19 17 14 15 17 20 23 19
14 13 12 12 12 9 8 9 7 9 11 8 5 7 10 8 8 11 11 9 10 8 5 6 7 7 8 7 6 5 6 8 9 7 7 10 12 12 12 13 13 12 11 14 17 18 19 23 26 25 28 32 28 24 25 25 23 22 22 21 25 30 27 24 25 26 24 25 26 28 32 33 32 30 27 26 31 32 26 21 20 20 17 15 15 16 19 19
14 12 11 11 12 11 11 11 10 10 10 8 8 12 12 11 14 15 11 9 11 10 7 9 10 9 9 7 5 5 7 8 8 6 6 8 9 10 12 12 11 9 10 14 19 20 19 22 25 25 26 29 32 30 27 28 30 29 22 21 28 34 32 30 28 25 26 29 28 26 29 33 35 32 28 24 26 30 31 28 23 21 21 20 18 17 17 17
15 13 12 12 12 13 12 11 11 8 8 10 10 8 9 14 16 14 12 12 13 12 10 10 11 10 9 7 6 8 9 8 8 8 8 8 7 7 9 10 9 8 10 15 17 17 17 20 23 26 26 27 32 33 29 31 35 31 21 20 26 34 36 36 32 27 28 32 34 32 28 26 30 34 32 27 25 23 28 32 29 23 21 21 20 19 20 20
16 15 14 13 11 11 12 13 12 9 10 12 9 5 10 15 13 9 11 14 13 13 12 11 11 12 11 8 7 9 10 9 9 11 10 8 7 7 7 9 12 12 12 13 14 12 12 17 22 25 26 27 32 34 34 34 32 26 22 21 22 29 38 42 38 33 32 34 37 41 39 32 29 32 32 30 27 22 22 29 31 26 22 22 21 20 22 26
Wind_Direction
339 338 336 334 331 328 325 321 316 309 302 295 287 278 269 263 259 257 253 249 244 240 235 231 231 231 230 229 227 225 222 220 220 223 223 223 226 228 225 221 220 219 215 214 210 207 205 198 196 197 207 214 215 249 290 14 308 322 352 346 341 331 332 286 201 178 166 163 153 159 164 163 169 170 174 177 171 157 138 122 110 119 122 109 111 108 103 99
336 334 332 330 328 324 321 316 311 305 298 291 284 277 270 263 258 255 253 250 246 241 237 233 230 230 230 229 227 226 224 221 219 222 222 223 226 227 224 220 220 220 217 215 210 209 209 205 202 200 210 218 218 242 264 281 295 331 360 343 329 333 338 296 191 176 166 161 162 173 172 170 175 169 175 181 174 166 141 117 111 121 125 121 121 115 107 102
334 332 329 327 324 321 318 313 307 302 296 289 282 276 270 264 259 255 252 250 248 244 239 235 231 229 229 228 228 226 224 222 220 220 220 222 225 226 225 220 218 220 218 215 212 211 211 210 209 206 214 221 223 236 251 282 295 328 359 330 317 321 318 277 182 179 172 163 162 174 175 173 184 177 176 183 174 174 158 130 121 125 132 133 128 119 108 103
333 330 327 324 322 319 316 312 307 301 295 289 282 276 269 264 261 257 253 250 248 245 241 237 234 230 228 228 227 225 224 222 218 220 220 221 224 225 225 221 218 220 218 214 212 213 212 212 213 212 215 220 225 229 235 277 297 295 328 326 319 294 260 208 184 188 182 170 164 171 177 177 191 189 183 186 175 169 165 142 134 137 139 135 129 121 108 102
332 329 326 323 321 318 316 312 308 302 296 290 284 278 271 265 261 257 255 251 248 246 243 240 236 232 229 227 227 225 225 220 216 221 221 219 223 225 224 221 219 219 215 211 212 214 214 213 214 215 216 220 224 222 228 257 283 289 327 348 336 307 251 208 186 193 185 172 167 170 175 181 194 198 193 188 180 172 171 154 141 148 141 134 131 122 112 104
332 329 326 323 322 320 317 313 308 303 298 292 286 279 273 267 261 257 254 252 249 247 244 241 238 235 231 228 227 225 224 219 214 221 222 218 220 223 223 220 218 219 213 208 211 214 214 215 216 216 216 220 223 217 222 247 266 287 336 351 334 315 236 193 183 189 177 168 172 173 173 181 189 197 199 192 184 178 183 169 146 151 142 133 131 124 118 107
332 329 327 325 323 321 319 315 310 306 300 294 288 280 273 268 263 259 255 252 250 248 245 242 239 236 233 230 227 226 225 219 211 217 220 216 219 222 223 220 217 218 212 207 210 213 214 215 217 216 216 219 223 223 222 238 255 282 341 359 340 310 220 187 185 194 178 172 176 175 171 179 185 186 193 195 186 177 192 187 156 153 146 137 131 128 126 113
333 331 329 327 325 323 321 317 313 310 304 298 293 286 278 270 265 261 256 252 249 247 246 243 240 237 234 231 229 227 226 220 209 213 219 216 216 220 222 220 217 216 211 207 209 213 213 214 215 213 215 218 219 225 224 230 245 279 346 6 347 310 234 198 199 200 183 175 173 168 166 175 187 183 187 192 180 180 196 191 172 163 150 143 140 143 141 121
335 333 331 330 328 326 323 319 316 312 308 303 297 292 285 277 271 265 260 255 250 247 245 244 241 237 235 232 230 228 227 222 209 210 218 216 215 217 221 219 216 215 209 207 209 212 213 213 215 213 214 217 217 220 215 218 238 287 358 354 322 319 258 216 206 196 182 171 169 168 172 179 188 181 185 194 180 184 201 192 182 173 157 151 151 154 146 126
337 336 335 333 331 329 326 322 319 316 312 307 301 296 290 284 278 271 265 259 253 249 246 244 242 238 235 232 231 230 228 223 213 211 216 215 215 216 219 219 216 214 208 205 207 210 213 211 212 215 214 213 216 222 214 212 229 278 20 350 324 316 284 232 206 196 180 167 169 172 177 178 179 180 186 196 185 186 198 194 190 179 167 160 154 158 146 135
338 338 337 336 334 331 329 326 323 319 315 310 305 299 294 290 285 278 271 264 258 253 249 246 243 240 236 233 231 230 228 225 217 215 217 214 214 215 216 218 216 215 209 205 206 209 211 207 206 210 214 213 212 219 217 215 220 223 30 7 336 313 298 229 203 193 176 168 168 163 167 170 173 185 187 189 185 191 197 194 193 182 174 169 157 154 148 145
337 338 338 337 336 333 331 329 326 322 317 313 308 303 299 295 291 284 277 270 265 259 255 251 247 243 238 234 232 231 230 227 220 218 220 216 214 214 213 216 215 215 212 207 207 209 207 202 202 205 212 215 209 209 210 213 208 187 221 295 297 307 314 212 199 186 175 176 170 159 161 171 178 182 187 189 185 195 201 193 191 183 178 176 163 159 155 151
337 338 338 338 337 335 333 331 328 323 320 316 311 307 302 298 294 289 282 276 271 267 262 257 252 247 242 236 234 233 229 227 221 217 222 218 214 214 212 213 214 214 213 211 210 210 205 197 201 206 210 217 214 208 203 208 200 171 165 184 281 306 330 214 202 189 176 172 168 161 161 168 173 177 189 196 192 198 202 195 191 184 182 179 168 165 165 164
337 338 338 338 337 336 335 332 329 326 322 318 314 310 305 300 295 290 284 279 277 274 269 264 258 252 246 240 236 235 230 228 223 218 221 219 215 215 213 212 213 214 214 213 212 212 207 199 202 208 208 212 215 211 203 201 197 183 157 140 300 310 351 222 207 195 179 172 176 172 166 170 175 182 189 198 199 198 198 196 192 184 185 183 175 172 171 175
338 339 339 339 338 337 336 334 331 327 323 319 315 311 306 302 297 293 289 286 284 281 274 267 261 254 248 242 237 236 232 230 226 219 222 222 217 216 214 213 213 213 214 214 213 212 208 201 206 213 210 206 205 205 203 201 202 203 197 199 256 288 6 226 215 208 206 213 207 194 183 182 185 186 188 198 205 203 199 197 195 189 189 188 181 177 178 180
340 340 340 340 340 339 337 335 332 328 323 319 316 312 307 303 300 297 294 293 294 291 282 271 263 255 248 242 236 234 232 231 228 222 223 224 220 217 216 214 214 214 214 215 215 213 207 201 210 218 218 216 211 208 205 204 207 206 199 215 237 268 283 255 242 234 237 252 224 204 196 189 192 194 190 195 203 206 204 199 199 196 193 193 188 181 182 185
341 341 341 341 341 340 339 336 333 328 324 320 316 311 307 304 301 297 294 296 301 303 295 280 269 260 251 244 237 234 231 231 230 225 224 224 222 220 218 216 215 214 215 215 215 214 207 204 210 214 215 218 219 219 218 212 209 210 203 210 229 250 260 249 251 248 241 244 223 210 204 192 193 198 195 196 200 205 204 199 201 201 195 194 196 191 187 189
343 344 343 343 343 342 340 337 333 329 325 322 318 313 309 307 302 294 289 292 298 304 302 290 275 262 254 247 240 234 231 231 231 227 225 225 223 222 220 219 217 216 216 216 216 216 211 209 210 211 211 211 209 218 230 223 213 221 214 208 223 244 251 244 248 250 239 238 229 218 210 199 197 199 198 198 198 203 205 201 200 200 198 197 202 202 193 192
345 345 345 345 345 344 342 338 334 329 326 324 320 316 313 312 305 291 284 289 294 295 295 290 277 265 258 249 240 234 231 231 230 226 226 225 224 223 222 220 219 218 217 217 217 216 215 215 215 215 215 213 209 214 227 224 219 228 226 221 226 237 253 257 261 257 244 240 236 227 215 205 202 200 199 201 199 202 204 204 203 201 199 200 207 210 199 194
346 347 348 347 347 346 343 339 334 331 328 325 323 320 318 316 309 293 285 288 292 288 283 284 281 275 270 259 244 234 230 230 228 225 225 224 223 223 222 221 219 219 219 218 218 217 217 217 218 219 218 215 212 214 224 225 218 223 230 231 231 234 251 265 266 263 257 249 243 239 222 209 205 200 197 200 202 202 203 207 207 203 203 204 210 213 208 202
348 349 349 348 349 347 344 341 336 333 331 328 324 322 320 318 311 300 294 293 293 286 276 275 278 276 273 265 244 230 228 227 225 222 222 223 223 222 222 221 220 219 219 219 219 219 218 218 218 218 218 216 213 213 221 228 222 221 232 235 232 232 242 258 259 256 267 261 246 244 236 216 208 203 199 199 201 201 201 208 209 204 205 207 211 213 210 208
351 350 350 350 349 348 346 342 337 336 335 331 327 324 321 319 313 305 303 300 295 289 277 270 270 269 266 258 238 226 226 224 221 219 218 219 220 220 219 219 218 218 218 219 219 220 218 218 219 218 218 216 215 215 218 228 230 228 231 231 235 236 235 248 252 250 261 267 253 247 245 233 218 210 207 200 198 199 197 203 207 206 209 209 211 214 212 210
352 351 351 351 349 349 347 344 341 340 338 337 333 327 324 322 318 313 314 310 299 291 283 274 269 268 266 257 240 228 226 222 217 214 214 215 216 217 218 218 217 216 217 218 220 220 218 217 218 218 219 216 215 215 215 222 229 236 238 224 226 236 237 248 257 253 255 261 261 257 251 247 234 219 212 202 196 200 201 204 206 205 210 212 211 212 211 212
352 352 352 351 351 350 347 347 345 341 341 343 339 334 332 330 327 329 332 330 320 311 307 298 283 275 270 259 244 233 227 221 216 210 209 212 212 213 215 216 215 214 215 217 219 220 216 214 215 216 217 217 216 213 211 215 219 230 247 243 235 235 238 263 267 258 255 255 260 263 256 251 242 219 211 205 201 202 202 205 208 205 206 211 212 211 210 212
353 353 352 353 353 351 350 350 349 349 349 347 343 340 338 342 353 359 359 2 12 9 357 334 316 301 281 261 242 234 228 223 217 209 206 208 208 207 209 212 213 211 212 216 220 219 214 211 210 211 214 213 214 212 209 213 217 217 228 250 251 240 238 275 279 266 261 257 258 264 255 243 235 216 212 213 211 209 205 203 206 206 205 208 212 213 213 214
353 352 353 354 353 354 355 355 356 357 357 355 354 358 10 14 17 17 16 23 27 22 19 1 359 353 297 261 240 228 224 223 215 206 206 205 203 206 207 207 208 210 210 211 216 218 215 211 206 203 207 210 212 212 209 207 204 194 197 237 253 247 242 262 273 270 267 261 256 258 242 217 216 224 223 231 231 222 212 204 205 206 203 204 210 217 217 216
353 353 354 355 355 357 358 359 1 1 4 10 16 29 33 26 25 24 18 16 13 10 10 11 16 8 331 262 242 224 214 219 213 204 203 201 200 204 207 205 202 205 210 211 211 212 212 211 207 201 197 202 212 213 211 207 198 177 175 226 245 242 240 251 261 263 267 261 247 243 225 207 220 236 232 245 252 242 223 208 203 203 201 201 206 215 219 217
353 354 354 355 357 358 0 3 4 5 10 18 28 35 33 24 24 23 14 9 6 2 6 13 11 3 5 325 261 237 224 222 212 203 200 198 197 197 201 203 198 195 202 210 209 208 209 207 209 209 198 195 208 215 211 206 207 193 169 207 245 233 223 243 260 256 256 257 242 233 219 216 242 260 255 257 263 261 231 209 198 196 201 203 205 210 216 217
354 354 354 356 356 359 2 5 8 9 13 24 32 30 29 28 21 6 2 5 2 2 8 13 14 13 34 85 129 184 223 217 207 203 197 194 194 193 196 201 202 199 198 206 207 197 194 199 201 200 197 202 212 219 211 194 199 201 178 193 235 227 206 219 241 245 243 248 243 234 228 228 249 271 262 255 262 277 215 199 194 196 201 203 204 208 212 214
355 354 356 356 356 1 3 7 12 10 14 28 30 30 36 33 27 28 13 357 358 7 13 25 31 31 95 124 108 57 271 183 176 202 195 193 193 192 194 197 205 207 201 202 199 182 178 199 206 192 187 204 209 213 210 189 185 195 189 197 216 218 215 228 245 245 237 243 245 235 230 227 236 267 271 253 250 252 196 192 203 209 207 205 204 205 208 212
354 354 357 355 355 360 2 11 14 8 14 22 25 38 40 11 28 43 18 345 358 18 26 33 30 37 93 92 69 15 349 155 129 161 186 193 195 192 190 192 197 205 210 205 194 191 193 196 203 199 193 199 203 204 199 184 179 186 204 210 206 200 200 225 257 260 256 257 251 234 227 225 231 252 280 269 257 255 244 228 231 225 216 211 206 202 205 208
354 354 357 355 355 356 2 14 13 8 11 11 24 33 6 337 37 50 17 345 5 11 3 7 2 40 68 64 59 356 336 53 71 7 169 179 196 193 186 187 184 192 213 205 188 203 208 197 197 204 205 206 210 211 194 183 180 182 201 213 203 196 194 198 224 247 262 265 260 249 241 240 240 239 276 287 268 258 254 244 252 249 225 211 204 202 203 205
353 354 356 355 355 352 1 12 10 9 3 8 23 7 340 7 50 55 13 354 24 355 340 351 340 27 53 54 67 7 346 14 28 46 136 154 182 184 183 188 174 169 203 191 187 204 204 198 206 209 214 219 223 223 196 184 185 186 199 210 206 205 202 204 217 231 251 260 261 261 262 264 263 257 270 286 263 249 252 244 256 267 225 205 199 201 201 202
352 354 353 354 354 346 357 7 7 9 1 10 14 334 352 25 31 39 9 30 67 15 325 356 25 62 31 17 29 8 343 317 1 105 141 132 153 164 174 190 168 148 179 178 185 206 199 201 223 219 215 216 223 231 208 189 191 194 206 213 207 203 191 193 232 241 248 260 259 257 271 278 273 267 264 270 262 246 242 237 250 261 217 200 197 199 199 199
350 352 349 351 352 341 348 360 4 9 3 11 1 333 13 34 358 359 70 89 78 98 294 354 26 65 44 345 332 346 334 293 336 140 151 113 122 154 144 177 172 148 177 184 174 197 206 219 247 254 236 212 209 224 213 202 201 198 213 230 211 204 188 173 223 250 244 249 247 242 257 263 256 260 258 257 264 253 235 227 238 242 218 209 205 201 199 201
349 350 345 347 349 338 340 352 359 4 360 1 352 347 21 32 341 359 34 136 107 127 163 12 23 51 53 313 317 343 5 310 349 90 138 129 157 163 138 161 195 169 189 203 174 179 199 218 235 254 253 234 213 207 201 203 207 200 214 237 209 203 202 177 182 251 253 250 247 233 236 248 248 249 250 251 258 249 231 227 232 228 221 217 211 204 205 210
345 347 341 341 346 334 329 341 351 355 355 347 335 358 32 21 346 358 12 161 146 100 64 74 69 48 65 142 329 346 34 35 79 128 170 183 171 163 159 172 181 176 192 195 162 171 190 199 211 236 250 242 219 201 195 194 196 191 193 211 194 197 209 199 191 217 244 260 260 242 240 249 253 254 252 247 247 237 224 222 229 226 216 211 207 205 211 215
340 342 337 338 342 326 319 328 333 339 349 338 321 351 38 12 352 3 358 192 151 112 61 81 83 41 271 160 74 27 30 24 151 162 207 212 179 169 171 173 176 186 195 183 163 171 176 167 172 223 233 235 217 191 193 195 189 182 183 195 192 190 210 214 213 217 222 241 248 246 258 266 264 262 252 238 234 230 228 226 228 226 216 211 207 207 212 217
337 336 332 335 334 324 320 319 324 335 339 330 324 355 17 357 359 9 355 328 165 147 123 123 107 56 243 179 93 96 251 288 197 224 232 199 174 181 187 172 177 194 195 179 170 173 169 161 161 163 177 227 229 185 186 194 191 192 200 206 198 186 203 219 222 227 225 229 247 249 264 278 255 243 231 220 220 218 222 225 226 228 222 218 215 212 215 219
336 333 330 327 322 323 326 320 319 315 303 296 311 11 8 343 345 356 355 6 75 159 159 151 137 90 168 156 122 154 237 227 197 239 239 210 175 187 200 193 189 197 188 176 175 174 169 165 164 156 156 203 234 198 188 195 198 204 210 214 206 190 195 214 220 228 225 228 256 260 267 275 245 226 217 213 224 225 225 228 227 228 225 222 222 219 220 223
335 336 330 313 309 317 334 328 287 289 296 296 342 358 351 336 332 343 356 18 45 149 185 168 171 218 163 146 168 166 129 189 215 215 202 207 208 202 205 205 208 206 185 178 185 178 170 170 162 152 161 185 205 205 203 203 205 209 207 209 207 190 187 203 211 226 223 224 264 277 280 280 263 255 250 225 253 262 242 235 231 229 225 221 223 223 221 223
332 338 333 309 308 317 337 309 262 299 325 342 325 319 314 317 325 339 353 359 7 18 170 167 194 199 174 158 180 185 174 199 219 214 183 184 226 222 210 207 213 211 188 185 192 182 174 176 165 156 166 176 182 191 208 205 200 199 198 205 206 198 198 192 185 217 211 192 242 268 266 268 267 273 278 258 260 273 251 238 232 228 223 216 218 222 221 221
333 336 332 313 309 318 339 315 283 317 358 312 291 290 290 304 314 333 349 345 342 1 60 300 210 190 179 165 178 189 200 211 225 217 194 186 223 231 214 205 208 210 206 200 194 186 184 186 181 173 166 162 168 171 185 217 204 187 189 205 210 209 214 198 178 197 200 186 217 251 247 254 260 261 261 247 235 243 243 240 236 231 227 219 215 215 213 214
333 333 328 304 294 311 346 314 281 270 67 288 276 257 263 287 293 317 335 342 340 338 313 298 197 186 193 191 192 199 203 214 223 205 195 196 221 237 223 212 218 219 222 219 203 195 196 199 197 186 165 158 159 153 161 213 212 188 179 192 209 214 225 217 201 201 201 197 218 234 232 242 248 245 247 240 234 239 235 235 240 236 235 236 231 221 210 206
332 332 320 298 289 293 292 256 251 251 239 262 278 268 276 284 270 294 319 329 338 336 306 299 181 189 207 205 215 237 209 212 209 202 219 226 227 241 234 223 234 234 224 223 212 202 205 209 206 192 173 168 161 152 169 196 193 178 166 157 193 211 210 219 218 215 212 208 218 228 227 231 237 240 243 243 248 254 248 250 256 243 235 238 237 229 217 210
327 321 315 311 300 277 259 249 245 260 265 261 276 273 270 287 278 279 301 312 326 339 325 315 287 202 210 188 181 193 199 212 207 203 231 242 236 247 246 231 238 233 221 224 218 209 212 216 214 204 190 184 172 164 178 193 179 174 169 160 183 205 195 200 222 222 221 217 219 229 229 228 234 238 239 242 253 260 253 252 252 239 227 226 225 223 220 220
317 314 318 321 311 297 286 259 243 275 281 261 266 260 241 275 290 279 279 290 309 330 338 329 313 253 237 202 198 207 213 218 213 209 225 232 231 240 244 231 224 213 213 223 220 214 218 221 218 209 196 192 186 178 185 190 181 183 181 167 175 201 204 218 228 219 219 224 229 238 237 234 237 237 232 232 236 238 239 241 239 235 231 230 229 224 218 220
312 313 314 310 311 312 292 258 238 258 270 268 280 258 236 254 278 276 271 274 292 316 334 328 305 277 265 233 223 234 243 236 230 227 235 236 233 238 237 228 225 217 216 223 224 220 220 222 220 211 199 192 187 182 188 194 192 190 186 179 192 209 210 219 224 213 208 217 226 235 238 234 232 232 230 232 236 237 236 235 234 236 237 236 238 233 224 222
310 313 309 300 305 305 283 277 267 252 265 288 297 251 244 247 256 264 268 271 280 297 314 296 282 288 291 273 249 241 242 261 269 265 259 249 240 243 246 247 255 252 234 231 234 227 219 221 221 215 206 198 190 183 188 194 190 184 188 197 207 211 205 201 207 208 207 212 220 229 236 234 229 230 232 235 240 240 237 236 236 242 248 247 245 241 231 224
305 306 302 293 288 289 294 301 295 278 280 288 273 263 260 251 252 263 268 267 272 279 286 285 287 302 306 293 282 262 244 255 267 261 259 256 242 238 246 257 273 272 247 243 246 238 226 224 223 217 211 204 198 194 196 199 191 184 198 213 205 202 200 193 195 202 205 211 216 222 232 232 227 227 231 237 242 238 234 237 245 252 255 252 250 246 239 232
299 295 289 282 277 283 292 293 292 288 272 266 271 273 255 247 253 266 265 256 262 268 269 278 289 299 301 295 288 275 262 254 251 250 258 266 259 246 243 244 248 248 244 245 252 252 241 234 229 222 215 203 199 199 201 203 198 194 206 215 201 199 199 191 191 197 199 206 214 217 224 229 226 226 230 238 247 243 236 238 241 245 250 252 251 244 238 237
294 290 287 283 277 274 272 272 273 262 253 268 283 269 250 258 261 258 255 253 255 259 262 268 276 282 287 297 300 289 282 274 264 263 268 272 271 262 250 243 242 243 244 246 255 265 257 240 229 222 214 204 201 204 205 204 205 208 219 222 211 205 200 194 196 201 202 206 213 219 227 231 230 231 233 239 247 248 245 240 232 229 239 249 250 242 238 238
Height
5888 5887 5885 5885 5884 5883 5882 5881 5881 5880 5880 5879 5879 5879 5879 5879 5879 5879 5879 5879 5880 5880 5881 5882 5882 5883 5884 5885 5886 5887 5889 5890 5892 5893 5894 5895 5895 5897 5898 5900 5900 5901 5902 5903 5904 5905 5905 5906 5907 5907 5908 5908 5908 5907 5907 5909 5908 5907 5908 5908 5908 5908 5908 5907 5905 5906 5907 5907 5909 5911 5912 5912 5912 5913 5913 5914 5915 5916 5917 5917 5918 5918 5919 5919 5919 5920 5920 5920
5886 5885 5884 5883 5882 5881 5880 5879 5878 5878 5877 5877 5877 5876 5876 5876 5876 5877 5877 5877 5878 5878 5879 5880 5880 5881 5882 5883 5884 5885 5887 5889 5890 5891 5893 5894 5894 5895 5897 5898 5899 5900 5901 5902 5903 5904 5905 5906 5906 5907 5908 5908 5908 5907 5907 5908 5908 5909 5910 5910 5908 5908 5908 5906 5905 5905 5906 5907 5909 5911 5912 5912 5913 5913 5913 5914 5915 5916 5917 5917 5918 5919 5919 5920 5920 5921 5921 5921
5885 5883 5882 5881 5880 5879 5878 5877 5876 5875 5875 5874 5874 5874 5874 5874 5874 5874 5874 5875 5875 5876 5877 5877 5878 5879 5880 5881 5882 5883 5885 5887 5888 5889 5891 5891 5892 5894 5895 5897 5898 5899 5900 5902 5902 5903 5904 5905 5906 5906 5907 5908 5908 5907 5907 5907 5907 5908 5910 5909 5908 5907 5907 5907 5906 5905 5906 5907 5909 5911 5912 5912 5913 5913 5914 5914 5915 5917 5918 5918 5918 5919 5920 5921 5921 5921 5922 5922
5883 5881 5880 5879 5877 5876 5875 5874 5874 5873 5872 5872 5872 5871 5871 5871 5871 5871 5872 5872 5873 5874 5874 5875 5876 5877 5877 5878 5879 5881 5882 5884 5886 5887 5888 5889 5890 5892 5894 5896 5897 5898 5899 5901 5902 5902 5903 5904 5905 5906 5907 5907 5907 5907 5906 5906 5906 5907 5907 5907 5907 5907 5906 5906 5906 5906 5907 5908 5910 5911 5912 5912 5913 5913 5914 5915 5916 5917 5918 5919 5919 5920 5920 5921 5922 5922 5923 5923
5880 5879 5877 5876 5875 5874 5873 5872 5871 5870 5870 5869 5869 5869 5869 5869 5868 5868 5869 5869 5870 5871 5872 5872 5873 5874 5875 5876 5877 5878 5879 5882 5885 5885 5886 5888 5889 5890 5892 5894 5895 5896 5898 5899 5900 5901 5902 5903 5904 5905 5906 5906 5906 5906 5907 5907 5906 5906 5906 5906 5906 5906 5906 5905 5904 5905 5906 5908 5910 5910 5911 5912 5913 5913 5914 5915 5916 5918 5919 5919 5919 5920 5921 5922 5922 5923 5923 5924
5878 5877 5875 5873 5872 5871 5870 5869 5868 5867 5867 5866 5866 5866 5865 5865 5865 5865 5865 5866 5867 5867 5868 5869 5870 5871 5872 5873 5874 5875 5877 5880 5882 5882 5884 5886 5887 5888 5890 5892 5894 5895 5896 5897 5898 5900 5901 5902 5903 5904 5905 5905 5905 5907 5907 5907 5906 5905 5906 5907 5906 5906 5906 5905 5904 5905 5907 5909 5910 5910 5911 5912 5913 5914 5914 5915 5917 5918 5919 5919 5919 5921 5922 5923 5923 5924 5924 5925
5876 5874 5872 5871 5870 5868 5867 5866 5865 5864 5864 5863 5863 5862 5862 5862 5861 5861 5862 5862 5863 5863 5864 5866 5867 5868 5869 5870 5871 5872 5873 5876 5879 5880 5881 5884 5885 5886 5888 5890 5892 5893 5895 5896 5897 5898 5899 5900 5901 5903 5904 5904 5905 5906 5907 5907 5905 5905 5908 5909 5907 5906 5905 5905 5905 5906 5907 5909 5910 5911 5911 5912 5913 5914 5914 5915 5917 5919 5919 5919 5920 5921 5922 5923 5924 5924 5925 5925
5874 5872 5870 5869 5867 5866 5865 5863 5862 5861 5860 5860 5859 5859 5858 5858 5858 5857 5858 5858 5859 5859 5860 5861 5863 5864 5866 5867 5868 5869 5869 5872 5877 5878 5879 5882 5883 5884 5886 5888 5890 5891 5893 5894 5895 5896 5897 5898 5900 5902 5903 5903 5904 5905 5906 5906 5904 5906 5909 5909 5906 5905 5905 5905 5906 5905 5905 5908 5910 5911 5912 5913 5913 5914 5914 5915 5917 5919 5920 5920 5920 5921 5922 5924 5925 5925 5926 5926
5872 5870 5868 5866 5865 5863 5862 5860 5859 5858 5857 5856 5856 5855 5855 5854 5854 5854 5853 5853 5854 5855 5855 5856 5858 5860 5861 5863 5864 5865 5865 5869 5876 5877 5877 5879 5881 5882 5884 5886 5888 5890 5892 5893 5894 5895 5896 5897 5899 5901 5901 5901 5903 5903 5905 5905 5904 5906 5908 5907 5905 5905 5905 5905 5904 5903 5904 5907 5910 5912 5914 5914 5914 5914 5914 5915 5917 5919 5919 5920 5921 5922 5923 5924 5925 5926 5927 5927
5870 5868 5866 5864 5862 5860 5859 5857 5856 5855 5854 5853 5852 5851 5851 5851 5850 5850 5849 5849 5849 5850 5850 5851 5853 5855 5856 5858 5860 5860 5862 5867 5873 5874 5874 5877 5879 5880 5882 5884 5886 5888 5890 5891 5893 5893 5894 5896 5898 5899 5899 5900 5902 5903 5905 5905 5905 5906 5906 5906 5905 5906 5905 5905 5905 5905 5906 5908 5910 5912 5914 5914 5914 5914 5914 5915 5917 5918 5919 5921 5921 5922 5923 5924 5925 5926 5927 5928
5868 5866 5864 5862 5859 5857 5856 5854 5852 5851 5850 5849 5848 5848 5847 5847 5846 5846 5845 5845 5845 5845 5846 5847 5848 5849 5851 5853 5855 5855 5859 5864 5870 5872 5871 5873 5876 5878 5880 5882 5884 5886 5888 5890 5891 5892 5893 5896 5897 5898 5898 5899 5901 5902 5904 5904 5905 5906 5907 5907 5906 5905 5905 5905 5905 5907 5909 5910 5910 5912 5913 5915 5915 5915 5915 5915 5917 5918 5919 5921 5922 5922 5923 5925 5926 5927 5928 5928
5866 5863 5861 5859 5857 5855 5853 5851 5849 5848 5847 5846 5845 5844 5843 5842 5842 5842 5841 5841 5841 5841 5841 5842 5843 5844 5846 5848 5849 5851 5856 5860 5866 5869 5868 5870 5872 5874 5877 5879 5882 5884 5886 5888 5889 5890 5893 5895 5896 5896 5897 5898 5900 5901 5902 5903 5904 5905 5906 5907 5906 5905 5906 5905 5906 5907 5909 5911 5911 5912 5913 5914 5914 5915 5915 5916 5917 5918 5919 5920 5922 5922 5924 5925 5926 5927 5928 5928
5863 5861 5859 5856 5854 5852 5850 5848 5846 5845 5844 5842 5841 5841 5840 5839 5838 5838 5838 5837 5837 5837 5837 5838 5838 5840 5841 5844 5845 5847 5852 5855 5860 5864 5863 5866 5869 5871 5874 5876 5879 5881 5884 5886 5887 5889 5892 5894 5895 5895 5896 5898 5899 5901 5902 5902 5903 5904 5906 5907 5906 5905 5905 5906 5907 5908 5910 5912 5912 5912 5913 5913 5913 5914 5915 5916 5918 5919 5919 5921 5921 5922 5923 5925 5926 5927 5928 5929
5861 5859 5856 5854 5851 5849 5847 5845 5844 5842 5841 5839 5838 5837 5836 5836 5835 5835 5835 5834 5834 5834 5834 5834 5834 5835 5836 5839 5841 5843 5847 5850 5855 5858 5858 5861 5865 5867 5870 5873 5876 5878 5881 5883 5886 5888 5891 5893 5894 5894 5896 5897 5898 5900 5901 5901 5902 5903 5905 5906 5907 5906 5906 5906 5907 5908 5910 5911 5912 5912 5912 5912 5913 5914 5915 5916 5918 5919 5920 5921 5921 5922 5923 5925 5926 5927 5928 5929
5859 5857 5854 5851 5849 5846 5844 5842 5841 5839 5838 5836 5835 5834 5833 5833 5832 5832 5831 5831 5831 5830 5830 5830 5830 5830 5831 5834 5837 5839 5842 5845 5849 5854 5855 5857 5861 5864 5867 5870 5873 5876 5878 5881 5884 5886 5889 5892 5893 5893 5894 5895 5897 5898 5899 5900 5901 5903 5904 5905 5907 5907 5907 5907 5908 5909 5910 5910 5911 5911 5912 5912 5914 5915 5915 5916 5917 5919 5920 5921 5921 5922 5923 5925 5925 5926 5928 5929
5857 5855 5852 5849 5847 5844 5842 5840 5838 5837 5835 5834 5833 5832 5831 5830 5829 5829 5828 5828 5827 5826 5826 5825 5825 5826 5827 5829 5832 5834 5837 5841 5845 5850 5851 5853 5857 5860 5863 5867 5870 5873 5876 5879 5881 5884 5888 5892 5892 5892 5893 5895 5896 5897 5898 5899 5901 5903 5904 5905 5906 5907 5907 5907 5908 5908 5909 5910 5910 5911 5912 5913 5914 5915 5916 5916 5918 5919 5920 5921 5922 5922 5923 5924 5925 5926 5928 5929
5856 5853 5850 5847 5845 5842 5840 5838 5836 5834 5833 5831 5830 5829 5828 5828 5827 5826 5826 5825 5825 5823 5823 5822 5822 5823 5823 5825 5827 5830 5834 5837 5841 5845 5847 5849 5854 5857 5860 5864 5867 5870 5873 5876 5879 5882 5887 5889 5889 5890 5892 5894 5895 5896 5897 5899 5900 5903 5905 5905 5906 5906 5907 5907 5907 5907 5908 5909 5910 5911 5912 5913 5914 5915 5916 5917 5918 5919 5920 5920 5921 5923 5923 5924 5925 5926 5928 5929
5854 5851 5849 5846 5843 5840 5838 5836 5834 5832 5831 5829 5828 5827 5826 5825 5824 5824 5823 5823 5822 5822 5821 5820 5820 5819 5820 5822 5824 5827 5831 5834 5837 5841 5843 5846 5850 5854 5858 5861 5864 5867 5870 5874 5877 5880 5883 5885 5886 5888 5890 5892 5895 5896 5896 5899 5901 5901 5903 5904 5905 5906 5906 5907 5907 5907 5907 5908 5909 5910 5911 5913 5914 5915 5916 5917 5918 5919 5919 5920 5921 5922 5923 5924 5925 5926 5928 5929
5853 5850 5847 5844 5841 5839 5836 5834 5832 5831 5829 5828 5826 5825 5824 5823 5822 5822 5821 5821 5820 5820 5819 5819 5818 5817 5818 5820 5822 5825 5828 5830 5833 5837 5840 5843 5848 5851 5855 5858 5861 5864 5868 5871 5874 5877 5880 5883 5885 5887 5889 5892 5894 5895 5895 5897 5900 5900 5900 5902 5904 5905 5905 5906 5907 5907 5907 5908 5908 5909 5910 5912 5913 5914 5916 5917 5917 5918 5919 5920 5921 5922 5923 5924 5925 5926 5928 5929
5851 5848 5845 5843 5840 5837 5835 5833 5831 5829 5828 5826 5825 5823 5822 5821 5820 5820 5819 5819 5818 5818 5817 5817 5816 5817 5817 5819 5821 5824 5825 5827 5830 5834 5837 5840 5844 5848 5851 5855 5858 5861 5865 5868 5871 5874 5877 5880 5883 5887 5890 5892 5893 5895 5895 5896 5898 5899 5899 5900 5903 5905 5905 5905 5907 5907 5907 5908 5908 5908 5908 5910 5912 5913 5914 5916 5916 5917 5919 5919 5920 5922 5923 5924 5925 5926 5928 5929
5849 5847 5844 5841 5839 5836 5834 5832 5830 5828 5826 5824 5823 5821 5820 5820 5819 5818 5817 5817 5816 5816 5816 5816 5816 5816 5816 5818 5820 5821 5822 5824 5827 5831 5834 5837 5841 5845 5848 5852 5856 5859 5862 5865 5868 5871 5875 5878 5882 5886 5888 5890 5892 5893 5894 5894 5897 5898 5898 5899 5901 5904 5905 5904 5906 5906 5906 5907 5907 5907 5907 5909 5910 5911 5911 5913 5915 5916 5918 5919 5920 5921 5922 5923 5925 5926 5927 5929
5848 5845 5843 5840 5837 5835 5833 5831 5829 5827 5825 5823 5821 5820 5819 5818 5817 5817 5816 5815 5815 5815 5815 5815 5815 5815 5816 5817 5818 5819 5820 5822 5825 5828 5831 5835 5838 5841 5845 5849 5853 5857 5859 5862 5865 5868 5872 5876 5880 5883 5886 5888 5890 5892 5893 5893 5895 5897 5898 5898 5900 5903 5904 5904 5904 5905 5906 5906 5906 5906 5907 5907 5908 5909 5909 5911 5914 5916 5918 5919 5920 5920 5921 5923 5924 5925 5927 5928
5847 5844 5841 5839 5836 5834 5832 5830 5828 5826 5824 5822 5820 5819 5817 5816 5816 5815 5815 5814 5814 5814 5814 5814 5814 5815 5815 5816 5817 5818 5819 5821 5823 5826 5829 5832 5835 5839 5843 5847 5851 5854 5857 5860 5862 5865 5870 5875 5879 5881 5884 5886 5888 5890 5892 5892 5893 5895 5896 5898 5900 5902 5903 5903 5903 5904 5905 5905 5904 5905 5906 5906 5907 5907 5908 5910 5913 5915 5917 5918 5919 5920 5921 5922 5924 5925 5926 5928
5846 5843 5841 5838 5836 5834 5832 5830 5828 5825 5823 5821 5819 5817 5816 5816 5815 5814 5814 5813 5813 5813 5813 5813 5814 5814 5815 5815 5816 5817 5818 5820 5822 5824 5827 5829 5833 5838 5842 5845 5848 5852 5855 5858 5859 5863 5869 5873 5876 5879 5881 5884 5886 5889 5890 5891 5892 5894 5895 5897 5899 5901 5902 5902 5902 5902 5904 5904 5904 5904 5905 5905 5905 5906 5907 5910 5911 5912 5914 5916 5918 5919 5920 5921 5923 5924 5925 5927
5845 5843 5840 5838 5835 5833 5831 5829 5827 5824 5822 5820 5818 5817 5816 5815 5814 5814 5813 5813 5814 5813 5813 5813 5813 5814 5814 5815 5815 5816 5818 5819 5821 5823 5825 5828 5832 5836 5839 5843 5847 5850 5853 5856 5858 5861 5866 5870 5873 5876 5879 5882 5884 5886 5888 5890 5893 5895 5897 5896 5896 5898 5900 5901 5901 5901 5902 5904 5904 5904 5904 5904 5904 5905 5907 5909 5910 5910 5911 5913 5916 5917 5919 5920 5922 5923 5925 5926
5844 5842 5839 5837 5835 5833 5830 5828 5826 5824 5822 5820 5819 5817 5816 5815 5815 5814 5814 5814 5814 5814 5814 5814 5813 5814 5814 5814 5815 5816 5817 5818 5820 5823 5824 5827 5831 5833 5837 5842 5846 5849 5851 5854 5857 5860 5865 5868 5871 5874 5877 5879 5881 5883 5886 5889 5893 5895 5896 5895 5895 5897 5899 5900 5900 5900 5901 5903 5904 5904 5903 5903 5904 5905 5906 5908 5909 5909 5910 5912 5914 5916 5918 5919 5921 5923 5924 5925
5844 5841 5839 5837 5835 5833 5831 5829 5827 5825 5823 5821 5819 5818 5817 5816 5815 5815 5814 5814 5814 5814 5814 5814 5814 5814 5814 5814 5815 5816 5817 5817 5820 5822 5824 5827 5830 5833 5837 5840 5844 5848 5850 5852 5855 5859 5863 5866 5869 5870 5874 5877 5878 5880 5884 5888 5891 5893 5894 5894 5894 5896 5897 5898 5899 5899 5900 5901 5902 5903 5903 5903 5903 5904 5905 5906 5908 5908 5908 5910 5912 5914 5917 5919 5920 5922 5924 5925
5843 5841 5838 5836 5834 5833 5831 5829 5827 5825 5823 5821 5820 5819 5818 5818 5816 5816 5816 5815 5815 5815 5815 5814 5814 5814 5814 5814 5815 5816 5817 5818 5820 5822 5823 5826 5829 5831 5835 5838 5841 5845 5848 5851 5853 5858 5862 5865 5867 5869 5872 5874 5875 5877 5882 5888 5891 5891 5893 5893 5892 5894 5896 5896 5897 5898 5899 5900 5901 5902 5903 5903 5903 5904 5905 5905 5906 5905 5905 5907 5911 5913 5915 5917 5919 5921 5923 5924
5843 5840 5838 5836 5834 5832 5831 5829 5827 5825 5824 5822 5821 5820 5820 5819 5818 5817 5816 5816 5816 5816 5815 5815 5815 5815 5814 5815 5816 5816 5817 5819 5821 5822 5823 5826 5828 5830 5834 5837 5840 5843 5846 5849 5853 5857 5861 5863 5864 5867 5871 5873 5874 5876 5880 5886 5888 5889 5892 5892 5890 5892 5894 5895 5896 5896 5898 5899 5899 5901 5902 5903 5904 5904 5904 5904 5905 5904 5904 5906 5910 5912 5914 5916 5918 5920 5922 5923
5842 5840 5838 5836 5834 5832 5831 5829 5827 5826 5824 5823 5822 5821 5820 5820 5819 5818 5817 5817 5817 5816 5816 5816 5816 5815 5815 5815 5816 5816 5818 5819 5821 5822 5824 5826 5827 5830 5834 5837 5840 5843 5845 5848 5852 5855 5858 5861 5863 5866 5869 5870 5872 5874 5879 5884 5885 5886 5890 5892 5891 5893 5893 5893 5894 5895 5896 5898 5898 5900 5901 5903 5903 5903 5904 5904 5905 5905 5905 5908 5910 5911 5913 5915 5917 5919 5920 5922
5841 5840 5837 5836 5834 5832 5831 5829 5828 5827 5825 5824 5823 5822 5822 5822 5820 5818 5819 5819 5818 5818 5817 5817 5817 5817 5816 5816 5817 5818 5819 5820 5821 5823 5824 5826 5828 5830 5833 5836 5840 5843 5845 5847 5851 5853 5855 5859 5861 5863 5864 5866 5868 5871 5876 5881 5881 5884 5889 5890 5891 5894 5894 5894 5893 5893 5895 5896 5898 5899 5900 5901 5903 5903 5903 5904 5905 5906 5906 5908 5910 5911 5913 5914 5916 5917 5919 5920
5841 5839 5837 5836 5834 5832 5831 5829 5829 5828 5827 5826 5824 5823 5824 5822 5820 5819 5821 5821 5820 5820 5819 5819 5819 5818 5817 5818 5819 5821 5821 5821 5822 5823 5824 5827 5829 5831 5834 5836 5839 5842 5846 5848 5851 5852 5854 5856 5858 5860 5863 5866 5869 5871 5875 5878 5878 5882 5886 5886 5889 5892 5894 5895 5894 5895 5895 5895 5896 5897 5898 5900 5901 5902 5904 5904 5904 5904 5905 5906 5908 5908 5909 5912 5914 5916 5917 5918
5840 5838 5837 5835 5834 5833 5831 5830 5830 5829 5828 5826 5825 5824 5823 5821 5820 5822 5823 5822 5822 5822 5822 5821 5821 5819 5820 5820 5822 5823 5823 5823 5823 5824 5825 5827 5829 5832 5834 5836 5838 5842 5846 5848 5850 5851 5853 5855 5856 5860 5864 5867 5869 5871 5874 5876 5877 5880 5883 5885 5888 5890 5892 5894 5895 5895 5895 5895 5896 5897 5897 5898 5898 5901 5903 5904 5903 5903 5903 5904 5905 5905 5905 5909 5912 5913 5915 5916
5839 5838 5836 5835 5834 5833 5831 5830 5830 5829 5828 5827 5825 5825 5823 5821 5822 5823 5823 5822 5822 5824 5824 5822 5821 5822 5823 5823 5823 5824 5824 5824 5824 5825 5825 5827 5830 5832 5834 5837 5839 5841 5845 5848 5850 5851 5853 5855 5856 5860 5864 5866 5868 5871 5874 5875 5876 5879 5881 5884 5888 5889 5890 5893 5894 5895 5895 5895 5896 5896 5897 5897 5897 5899 5901 5902 5903 5903 5902 5902 5903 5903 5904 5906 5908 5910 5913 5915
5839 5837 5836 5835 5834 5833 5831 5830 5830 5829 5828 5827 5826 5825 5823 5822 5822 5823 5823 5823 5822 5824 5824 5823 5823 5823 5824 5825 5825 5825 5825 5825 5825 5825 5826 5827 5831 5833 5835 5838 5840 5841 5844 5846 5847 5850 5853 5855 5856 5859 5862 5864 5867 5869 5872 5873 5875 5877 5879 5882 5886 5888 5889 5891 5893 5893 5894 5895 5896 5897 5897 5897 5897 5898 5898 5899 5901 5901 5901 5902 5902 5903 5905 5906 5908 5910 5913 5914
5838 5836 5835 5834 5833 5832 5831 5830 5830 5829 5828 5827 5826 5825 5823 5823 5823 5822 5822 5822 5822 5823 5823 5824 5825 5825 5826 5827 5826 5825 5826 5826 5826 5826 5827 5828 5830 5832 5835 5837 5839 5841 5841 5841 5844 5848 5852 5853 5854 5856 5858 5861 5865 5867 5869 5872 5874 5875 5877 5880 5885 5887 5889 5890 5891 5891 5892 5893 5894 5896 5896 5896 5896 5897 5897 5898 5899 5899 5901 5902 5903 5903 5904 5906 5908 5911 5913 5914
5837 5836 5834 5834 5833 5832 5831 5830 5829 5829 5828 5827 5826 5825 5823 5824 5823 5822 5822 5822 5822 5823 5824 5825 5826 5826 5827 5828 5827 5826 5826 5826 5826 5827 5827 5828 5830 5831 5832 5833 5836 5837 5838 5840 5844 5847 5851 5853 5853 5855 5857 5859 5863 5865 5868 5871 5872 5874 5877 5879 5882 5885 5887 5888 5889 5889 5891 5891 5892 5893 5895 5895 5896 5897 5897 5897 5898 5898 5900 5901 5902 5903 5904 5905 5907 5910 5912 5913
5836 5835 5834 5833 5832 5831 5831 5829 5829 5828 5828 5827 5826 5825 5824 5824 5823 5822 5822 5821 5821 5822 5823 5825 5826 5826 5827 5826 5826 5827 5827 5827 5827 5827 5827 5828 5829 5830 5831 5832 5834 5836 5838 5841 5843 5844 5848 5851 5852 5855 5857 5856 5860 5864 5867 5869 5870 5872 5875 5877 5880 5882 5884 5886 5887 5888 5889 5890 5890 5891 5893 5894 5895 5896 5896 5896 5897 5898 5899 5900 5901 5902 5903 5905 5907 5909 5911 5912
5835 5834 5833 5832 5831 5831 5830 5829 5828 5827 5827 5826 5826 5824 5824 5824 5823 5822 5822 5821 5821 5822 5823 5824 5824 5825 5825 5826 5827 5827 5827 5828 5828 5828 5827 5827 5828 5829 5830 5832 5834 5835 5838 5841 5841 5841 5844 5848 5850 5854 5856 5856 5858 5862 5865 5867 5869 5871 5873 5875 5877 5880 5882 5884 5885 5887 5889 5890 5890 5890 5893 5894 5894 5895 5895 5895 5896 5896 5897 5898 5900 5902 5903 5904 5906 5908 5909 5910
5835 5834 5832 5831 5831 5830 5829 5828 5827 5827 5826 5826 5825 5825 5825 5824 5824 5823 5822 5821 5821 5822 5822 5822 5822 5823 5824 5825 5826 5826 5827 5827 5827 5827 5826 5826 5828 5828 5829 5831 5832 5833 5836 5840 5841 5841 5844 5846 5848 5850 5854 5856 5858 5860 5863 5865 5867 5870 5873 5874 5876 5878 5880 5882 5883 5885 5887 5890 5890 5890 5891 5892 5892 5894 5894 5894 5895 5896 5897 5898 5899 5901 5902 5903 5904 5906 5908 5909
5834 5833 5832 5831 5830 5829 5828 5828 5827 5826 5825 5825 5824 5825 5825 5825 5824 5823 5822 5821 5821 5821 5821 5821 5821 5822 5822 5823 5825 5825 5826 5826 5825 5825 5825 5826 5827 5826 5827 5829 5830 5832 5835 5837 5838 5839 5842 5844 5845 5847 5851 5854 5856 5857 5861 5863 5865 5868 5871 5873 5876 5877 5878 5881 5883 5884 5886 5888 5889 5889 5889 5889 5890 5892 5893 5894 5894 5895 5896 5897 5898 5899 5900 5901 5903 5904 5906 5907
5832 5832 5831 5830 5829 5828 5827 5827 5826 5825 5824 5824 5825 5824 5824 5824 5824 5823 5822 5821 5821 5820 5821 5821 5821 5821 5821 5821 5822 5823 5824 5824 5823 5824 5825 5826 5825 5824 5826 5827 5828 5830 5832 5832 5833 5836 5840 5842 5843 5845 5847 5850 5853 5855 5858 5861 5863 5866 5870 5872 5874 5876 5876 5879 5882 5884 5885 5887 5888 5887 5886 5887 5889 5890 5891 5892 5893 5894 5895 5896 5896 5897 5898 5899 5900 5902 5904 5905
5831 5830 5829 5828 5828 5827 5826 5825 5825 5824 5824 5825 5825 5824 5824 5824 5824 5823 5822 5821 5820 5820 5820 5820 5819 5819 5820 5821 5821 5822 5823 5822 5822 5823 5824 5824 5822 5822 5825 5827 5827 5828 5830 5832 5835 5838 5841 5841 5842 5844 5846 5850 5853 5854 5856 5860 5862 5864 5867 5870 5872 5874 5876 5878 5880 5880 5882 5884 5884 5882 5882 5884 5886 5888 5889 5890 5891 5892 5893 5894 5895 5896 5897 5897 5897 5898 5900 5902
5830 5829 5828 5827 5826 5825 5824 5824 5823 5822 5824 5825 5824 5823 5823 5823 5823 5823 5822 5821 5820 5819 5819 5818 5819 5820 5820 5821 5821 5822 5822 5821 5821 5822 5823 5822 5821 5822 5824 5826 5826 5827 5830 5833 5836 5838 5838 5838 5840 5844 5846 5849 5851 5852 5853 5856 5860 5862 5865 5869 5872 5874 5876 5877 5877 5877 5878 5880 5879 5878 5879 5882 5883 5885 5886 5887 5889 5890 5891 5892 5893 5895 5896 5897 5897 5897 5896 5897
5828 5827 5827 5826 5824 5823 5823 5823 5822 5821 5822 5823 5823 5823 5822 5822 5822 5822 5821 5821 5820 5819 5818 5818 5818 5819 5819 5820 5820 5821 5821 5821 5820 5821 5821 5821 5821 5821 5823 5825 5825 5827 5830 5832 5834 5835 5834 5835 5839 5842 5844 5846 5848 5850 5851 5853 5856 5860 5864 5867 5869 5872 5873 5875 5875 5876 5875 5875 5876 5876 5877 5880 5881 5883 5884 5885 5887 5889 5890 5891 5892 5893 5895 5896 5897 5898 5898 5896
5827 5825 5825 5824 5823 5822 5822 5822 5822 5821 5821 5822 5822 5822 5821 5821 5821 5821 5820 5820 5819 5819 5818 5818 5817 5818 5818 5818 5819 5818 5819 5819 5819 5819 5820 5820 5820 5821 5823 5824 5825 5827 5829 5830 5831 5832 5833 5834 5838 5842 5845 5846 5846 5848 5850 5852 5855 5858 5861 5864 5866 5868 5869 5869 5869 5870 5870 5872 5873 5874 5875 5878 5880 5881 5883 5884 5886 5888 5888 5889 5890 5892 5894 5895 5894 5895 5897 5897
5826 5824 5823 5822 5821 5821 5820 5820 5820 5820 5820 5820 5820 5820 5820 5820 5819 5819 5819 5819 5819 5818 5818 5817 5817 5816 5817 5817 5816 5816 5816 5817 5818 5818 5818 5818 5819 5820 5822 5823 5824 5825 5826 5827 5828 5830 5831 5833 5836 5840 5843 5846 5846 5847 5849 5851 5853 5855 5858 5861 5862 5862 5861 5861 5862 5863 5865 5868 5871 5871 5872 5874 5876 5879 5882 5884 5885 5886 5887 5888 5889 5890 5892 5893 5893 5893 5894 5896
5824 5823 5822 5821 5820 5819 5819 5819 5819 5820 5818 5818 5819 5819 5819 5819 5818 5818 5818 5818 5818 5818 5818 5817 5816 5815 5815 5815 5815 5815 5815 5816 5816 5816 5817 5817 5818 5819 5820 5820 5821 5823 5823 5824 5826 5828 5830 5831 5833 5836 5839 5842 5844 5845 5848 5850 5852 5854 5857 5858 5855 5854 5855 5859 5860 5861 5863 5865 5866 5867 5868 5870 5873 5876 5879 5881 5882 5883 5885 5887 5887 5888 5889 5890 5892 5893 5893 5894
5823 5822 5821 5820 5819 5818 5818 5817 5818 5818 5816 5816 5818 5818 5817 5818 5817 5816 5816 5817 5816 5817 5817 5817 5815 5814 5814 5814 5815 5815 5815 5814 5815 5815 5816 5816 5817 5818 5819 5819 5820 5821 5822 5823 5824 5826 5827 5827 5829 5833 5836 5839 5842 5843 5845 5846 5849 5852 5853 5850 5849 5849 5853 5858 5858 5858 5860 5861 5862 5864 5864 5865 5869 5872 5874 5877 5877 5878 5882 5885 5885 5886 5887 5888 5889 5891 5892 5894
5822 5821 5820 5819 5818 5816 5816 5816 5816 5816 5815 5816 5816 5816 5816 5816 5815 5814 5815 5816 5815 5816 5816 5815 5814 5814 5814 5814 5814 5814 5814 5814 5814 5815 5815 5815 5816 5817 5818 5818 5818 5820 5821 5820 5821 5823 5824 5824 5826 5829 5833 5837 5840 5840 5839 5840 5842 5844 5842 5841 5844 5847 5850 5855 5856 5855 5855 5856 5859 5862 5860 5860 5866 5869 5870 5872 5872 5872 5876 5880 5882 5882 5883 5884 5887 5889 5890 5892
5819 5819 5818 5817 5816 5816 5815 5815 5815 5815 5814 5813 5814 5814 5813 5813 5812 5812 5813 5814 5814 5814 5815 5814 5814 5814 5813 5813 5813 5813 5813 5813 5813 5813 5813 5814 5815 5815 5816 5816 5817 5818 5819 5818 5818 5820 5821 5822 5824 5827 5830 5834 5835 5833 5834 5836 5838 5838 5836 5838 5842 5844 5847 5852 5853 5852 5852 5852 5855 5858 5856 5857 5862 5864 5865 5867 5869 5870 5872 5874 5877 5879 5879 5880 5883 5885 5887 5888
5817 5816 5815 5815 5815 5815 5814 5813 5813 5813 5812 5811 5812 5813 5811 5810 5810 5811 5811 5812 5812 5812 5813 5813 5813 5813 5812 5812 5812 5812 5811 5812 5812 5812 5812 5812 5813 5813 5814 5815 5815 5815 5816 5817 5817 5818 5819 5820 5821 5823 5827 5829 5829 5830 5834 5836 5837 5837 5836 5836 5838 5841 5845 5848 5849 5849 5850 5851 5852 5853 5853 5855 5859 5861 5862 5863 5867 5870 5871 5870 5873 5876 5877 5877 5879 5881 5883 5884